DELTA 1 DEB, 26834

Orbit data source: Space-Track

DELTA 1 DEB, 26834 is space debris in SSO originally from a launch on Thu, 12 Jun 1975 UTC launched from the Air Force Western Test Range (AFWTR). Debris objects in space refer to the collection of defunct objects orbiting the Earth. Examples of debris include non-operational satellites, rocket bodies, and fragments generated from explosions, collisions, or faulty payload assembly.

Loading next visibility...
Identifier
26834, 1975-052KN
Orbit
SSO
Country
Flag of USUS
Related business
Manufacturer
Unknown
Mission
Spacecraft
Bus & Motor
Unknown
Mass
Unknown
Launch date (UTC)
1975-06-12 (51 years ago)
Launch vehicle
Unknown
Launch site
Air Force Western Test Range (AFWTR)
Object type
Payload
Rocket body
Debris
Shape & HBR
Unknown shape, 0.1 m
Radar Cross Section
Small (<0.1 m²)

Expand to show TLE details & history
Last TLE update: 10 hours ago

TLE from 10 hours ago
0 DELTA 1 DEB
1 26834U 75052KN  25353.92313972 -.00000008  00000-0  68111-4 0  9996
2 26834  99.7353  23.9557 0057205 142.6089 338.5499 13.32951248204343
Epoch: 2025-12-19T22:09Z
TLE epoch observation values (Epoch: 2025-12-19T22:09:19.271Z)
Latitude
57.82734°
Longitude
158.61179°
Altitude
1,105.311 km
Speed
7.325 km/s
True Right ascension
14h 38m 47s
True Declination
57° 40' 46"
Sunlit
Object was in daylight at epoch
Visualization orbit readout
Latitude
Unknown
Longitude
Unknown
Altitude
Unknown
Speed
Unknown
Apparent Right ascension
Unknown
Apparent Declination
Unknown
Sunlit
N/A
Visualization observer readout
Local Sidereal Time
07:09:37
Azimuth
Unknown
Elevation
Unknown
Doppler factor
Unknown
Orbital elements
Apogee altitude
1,175.945 km
Perigee altitude
1,090.011 km
Semi-major axis
7,511.115 km
Eccentricity
0.00572
Inclination
99.7353°
RAAN
23.9557°
Arg. of periapsis
142.6089°
True anomaly
338.30858°
Mean anomaly
338.5499°
Eccentric anomaly
338.4294°
Mean motion
3.33416 °/min
Orbital period
107.97 mins
BSTAR
0.000068111
Loading maneuver chart data...
Computing Atmospheric mass density...
Loading historical data...
Loading historical data...
Loading historical data...
Loading historical data...
Loading historical data...
Loading historical data...
Loading historical data...

Documentation

Showing up to 5 results
|